(134) Sophrosyne
ephemeris date magn radius delta ra dec elong phase
Today6 Jul 202513.92.483 AU2.285 AU00h53m+06°54'88.9°24.2°
Opposition8 Oct 202511.92.375 AU1.384 AU00h42m+15°26'170.0°4.2°
(134) Sophrosyne - 2025-07-06
astro.vanbuitenen.nl


 
-1 year
-1 month
-1 day
Now
+1 day
+1 month
+1 year

The interactive orbit chart above shows the body's path through the solar system and its position at the given date. Green and blue lines are shown perpendicular to the ecliptic plane: Green if the path is above the ecliptic plane, blue if it is below. (Left-click and drag to rotate the view; Right-click and drag to move the view; Use scroll wheel to zoom in our out.)

The orbital elements of Sophrosyne are:

            e (Eccentricity)                : 0.1151095
            a (Semimajor axis)              : 2.5632091
            i (Inclination)                 : 11.61186
            Ω (Longitude of ascending node) : 345.83571
            ω (Argument of perihelion)      : 85.73505
            M (Mean anomaly)                : 277.23041
            Epoch                           : 2025 May 05

            L (Longitude of perihelion)     : 71.48199
            B (Latitude of perihelion)      : 11.57926
            P (Orbital period in years)     : 4.10            
        

The light curve chart below shows the estimated development of the minor planet's magnitude.


The all-sky chart below shows the path of the minor planet over the same period as the light curve. The current position is marked yellow.





The following chart shows the path of the minor planet in the next few days. The field of view is optimized for (~10x50) binoculars and finderscopes. A more printer-friendly version of the same chart can be found below.




Ephemerides:
Date       Time       RA (2000)    DEC (2000)    delta   radius  elong  phase   PA    magn
2025-07-06 00:00 UT   00 53 19.8   +06 54 09     2.285    2.483   88.9   24.2   247   13.9 
2025-07-06 01:11 UT   00 53 22.4   +06 54 38     2.284    2.483   88.9   24.2   247   13.9 
2025-07-07 00:00 UT   00 54 13.3   +07 03 45     2.271    2.482   89.6   24.2   247   13.9 
2025-07-08 00:00 UT   00 55 06.1   +07 13 18     2.258    2.481   90.3   24.2   247   13.8 
2025-07-09 00:00 UT   00 55 58.0   +07 22 48     2.244    2.479   91.0   24.2   247   13.8 
2025-07-10 00:00 UT   00 56 49.0   +07 32 16     2.230    2.478   91.7   24.2   247   13.8 
2025-07-11 00:00 UT   00 57 39.2   +07 41 40     2.217    2.477   92.4   24.2   247   13.8 
2025-07-12 00:00 UT   00 58 28.5   +07 51 01     2.203    2.476   93.1   24.2   247   13.8 
2025-07-13 00:00 UT   00 59 16.9   +08 00 19     2.190    2.474   93.8   24.2   247   13.8 
2025-07-14 00:00 UT   01 00 04.3   +08 09 35     2.176    2.473   94.5   24.2   247   13.8 
2025-07-15 00:00 UT   01 00 50.9   +08 18 47     2.163    2.472   95.2   24.2   247   13.7 
2025-07-16 00:00 UT   01 01 36.4   +08 27 55     2.149    2.471   95.9   24.2   247   13.7 
2025-07-17 00:00 UT   01 02 21.0   +08 37 01     2.136    2.470   96.7   24.1   247   13.7 
2025-07-18 00:00 UT   01 03 04.7   +08 46 03     2.122    2.468   97.4   24.1   247   13.7 
2025-07-19 00:00 UT   01 03 47.2   +08 55 02     2.109    2.467   98.1   24.1   247   13.7 
2025-07-20 00:00 UT   01 04 28.8   +09 03 58     2.096    2.466   98.9   24.0   247   13.7 
2025-07-21 00:00 UT   01 05 09.3   +09 12 49     2.082    2.465   99.6   24.0   247   13.6 
2025-07-22 00:00 UT   01 05 48.7   +09 21 37     2.069    2.463  100.4   23.9   247   13.6 
2025-07-23 00:00 UT   01 06 27.0   +09 30 22     2.056    2.462  101.1   23.9   247   13.6 
2025-07-24 00:00 UT   01 07 04.1   +09 39 02     2.042    2.461  101.9   23.8   247   13.6 
2025-07-25 00:00 UT   01 07 40.1   +09 47 39     2.029    2.460  102.6   23.8   247   13.6 
2025-07-26 00:00 UT   01 08 15.0   +09 56 12     2.016    2.459  103.4   23.7   247   13.6 
2025-07-27 00:00 UT   01 08 48.7   +10 04 41     2.003    2.457  104.2   23.6   247   13.5 
2025-07-28 00:00 UT   01 09 21.1   +10 13 06     1.990    2.456  104.9   23.5   247   13.5 
2025-07-29 00:00 UT   01 09 52.4   +10 21 27     1.977    2.455  105.7   23.5   247   13.5 
2025-07-30 00:00 UT   01 10 22.4   +10 29 43     1.964    2.454  106.5   23.4   247   13.5 
2025-07-31 00:00 UT   01 10 51.1   +10 37 56     1.951    2.453  107.3   23.3   247   13.5 
2025-08-01 00:00 UT   01 11 18.5   +10 46 04     1.938    2.451  108.1   23.2   247   13.5 
2025-08-02 00:00 UT   01 11 44.7   +10 54 07     1.925    2.450  108.9   23.1   247   13.4 
2025-08-03 00:00 UT   01 12 09.5   +11 02 07     1.913    2.449  109.7   23.0   247   13.4 
2025-08-04 00:00 UT   01 12 33.0   +11 10 01     1.900    2.448  110.5   22.8   247   13.4 
2025-08-05 00:00 UT   01 12 55.1   +11 17 51     1.887    2.447  111.4   22.7   246   13.4 


    Terminology:
            
    delta:  distance between minor planet and earth in AU
    radius: distance between minor planet and sun in AU
    magn:   magnitude (brightness) estimate    
    ra:     right ascension in hours (24h = 360deg)
    dec:    declination in degrees
    elong:  elongation in degrees (angle sun-earth-minor planet)    
    phase:  phase angle in degrees (angle sun-minor planet-earth)        
    AU:     Astronomical Unit (mean distance between earth and sun: 149597870.7 km
    

Orbital elements provided by the MPC (Minor Planet Center).
Calculations by a modified version of AAPlus, a C# implementation of the AA+ project by PJ Naughter from the algorithms presented in the book "Astronomical Algorithms" by Jean Meeus.
NGC2000 dso catalog and star labels from VizieR as provided by the Strasbourg astronomical Data Center.
Tycho2 catalog from the ESO archive.